Location: Aytr�
(46.1357°N, 1.1145°W)
Time: 19:45:45
(UTC+00:00)

ERBS - Pass Details

Date: 03 March 2021
Orbit: 407 x 412 km, 57.0° (Epoch: 20 April)

Event Time Altitude Azimuth Distance (km) Brightness Sun altitude
Rises 18:52:11 0° 256° (WSW) 2,353 7.8 -10.9°
Reaches altitude 10° 18:54:25 10° 268° (W) 1,492 6.6 -11.3°
Maximum altitude 18:57:25 30° 332° (NNW) 779 3.9 -11.8°
Drops below altitude 10° 19:00:24 10° 36° (NE) 1,495 4.7 -12.3°
Enters shadow 19:00:46 - 38° (NE) 1,629 4.9 -12.4°
